Simultaneous Nadir Overpasses (SNOs) Predictions

Prediction of SNOs between GOES-16 and TERRA Satellite Orbit:

Table of predicted SNOs for the next 14.0 days since TLE Epoch: 2/21/2025
Index Date Time (GOES-16) GOES-16 Lat,Lon TERRA Lat,Lon Distance(km) Time Diff (sec)
1 02/23/2025 02:12:34 -0.01, -75.18 0.85, -70.96 479.22 80
2 02/23/2025 14:32:55 0.02, -75.22 0.11, -75.73 57.98 34
3 02/25/2025 14:13:26 0.02, -75.23 -0.84, -71.22 455.49 80
4 02/26/2025 02:35:48 -0.03, -75.19 -0.19, -76.01 93.03 80
5 02/28/2025 02:14:24 -0.03, -75.20 0.73, -71.49 421.40 80
6 02/28/2025 14:34:00 0.03, -75.25 0.22, -76.27 115.56 80
7 03/02/2025 14:17:55 0.03, -75.27 -0.68, -71.74 399.89 80
8 03/03/2025 02:37:37 -0.03, -75.24 -0.33, -76.54 148.05 80
9 03/05/2025 02:16:13 -0.03, -75.26 0.67, -72.03 367.79 80
10 03/05/2025 14:35:48 0.03, -75.30 0.33, -76.79 169.08 80
11 03/07/2025 14:19:43 0.02, -75.33 -0.64, -72.28 347.40 80
